[[{"header":{"parameterUnit":"m.s-1","parameterCategory":1,"la1":30.2991,"la2":30.254,"lo1":-89.0895,"lo2":-89.0444,"dy":0.0017,"dx":0.0017,"nx":28,"ny":28,"refTime":"2024-03-20T03:00:00:Z","depth":0,"parameterNumber":2,"parameterNumberName":"U-component_of_WINDS"},"data":[0,0,0,0,0,0,0,0,0,0,0,0,0,0,0,0,0,0,0,0,0,0,0,0,0,0,0,0,0,0,0,0,0,0,0,0,0,0,0,0,0,0,0,0,0,0,0,0,0,0,0,0,0,0,0,0,0,0,-6.9924,-6.9927,0,-7.018,-7.0183,-7.0186,-7.0133,-7.0128,-7.0124,-7.0119,-7.0372,-7.0383,-7.0394,0,0,0,0,0,0,0,0,0,0,0,0,0,-6.9379,-6.9389,-6.9924,-6.9927,-6.9931,-7.018,-7.0183,-7.0187,-7.0134,-7.0128,-7.0123,-7.0117,-7.0369,-7.0382,-7.0395,0,0,0,0,0,0,0,0,0,0,0,0,0,-6.9623,-6.9392,-6.9923,-6.9934,-6.9938,-7.0179,-7.0183,-7.0187,-7.0135,-7.0128,-7.0121,-7.0114,-7.0364,-7.038,-7.0397,-7.064,0,0,-7.0448,-7.0455,0,0,0,0,0,0,0,0,-6.9609,-6.9643,-6.993,-6.9934,-6.9939,-7.0118,-7.0083,-7.0339,-7.0137,-7.006,-7.0119,-7.0111,-7.0293,-7.0315,-7.0378,-7.0652,-7.0663,-7.0449,-7.0459,-7.0466,-7.0471,0,0,0,0,0,0,0,-6.9592,-6.9632,-7.0025,-6.9934,-6.9939,-6.9923,-6.995,-7.0132,-7.0212,-7.0066,-7.0063,-7.0094,-7.0293,-7.0362,-7.0383,-7.0666,-7.0449,-7.0463,-7.0474,-7.048,-7.1147,-7.1154,0,0,0,0,0,0,-6.9573,-6.9618,-7.0017,-7.0033,-6.9754,-6.9938,-6.9969,-7.0067,-7.021,-7.0225,-7.01,-7.0091,-7.0337,-7.0364,-7.0392,-7.0683,-7.0466,-7.0482,-7.0491,-7.1139,-7.1149,-7.1157,0,0,0,0,0,0,-6.9561,-6.9609,-7.0007,-6.9825,-6.9874,-6.9955,-7.0066,-7.0076,-7.0144,-7.0236,-7.0249,-7.0156,-7.0332,-7.0369,-7.0578,-7.0691,-7.0489,-7.0504,-7.113,-7.1142,-7.1153,-7.1269,0,0,0,0,0,0,-6.9546,-6.9605,-6.9702,-6.9827,-6.9884,-7.0193,-7.0074,-7.0086,-7.0174,-7.0165,-7.0292,-7.0306,-7.033,-7.0554,-7.0595,-7.0711,-7.0517,-7.112,-7.1136,-7.1149,-7.1256,-7.1284,-7.1307,0,0,0,0,0,-6.9527,-6.9723,-6.9707,-6.9755,-7.0007,-7.0199,-7.0231,-7.0257,-7.0184,-7.0279,-7.0337,-7.0302,-7.0672,-7.0576,-7.0621,-7.0744,-7.1113,-7.1131,-7.1148,-7.1244,-7.1278,-7.1307,0,0,0,0,0,0,-6.9606,-6.974,-6.9723,-6.9967,-7.0073,-7.019,-7.0312,-7.0293,-7.0419,-7.0405,-7.0428,-7.0457,-7.067,-7.0728,-7.0618,-7.0984,-7.0882,-7.0909,-7.0939,-7.0972,-7.0997,-7.0978,-7.0531,0,0,0,0,0,-6.9653,-6.9802,-6.9909,-7.0113,-7.0167,-7.023,-7.0315,-7.0326,-7.0435,-7.0478,-7.0552,-7.0656,-7.0795,-7.0887,-7.1021,-7.1263,-7.1288,-7.137,-7.1395,-7.1416,-7.1439,-7.1567,-7.1604,-7.1214,-7.1214,-7.1214,0,0,-6.9749,-6.9841,-6.9933,-7.0131,-7.0214,-7.0364,-7.0268,-7.0431,-7.0541,-7.0502,-7.0705,-7.0762,-7.0879,-7.1106,-7.1209,-7.1161,-7.1552,-7.1438,-7.1454,-7.1466,-7.1589,-7.1626,-7.1659,-7.1226,-7.1224,-7.1222,0,0,-7.0002,-7.0087,-7.0266,-7.0351,-7.0478,-7.0518,-7.056,-7.0681,-7.0718,-7.0923,-7.0895,-7.1024,-7.1265,-7.1348,-7.1422,-7.1702,-7.1673,-7.1745,-7.1879,-7.2004,-7.2034,-7.2061,-7.2158,-7.2193,-7.1767,-7.1768,-7.1768,0,-7.0105,-7.0333,-7.0359,-7.0525,-7.061,-7.0584,-7.0762,-7.0842,-7.1005,-7.1063,-7.1007,-7.1306,-7.1383,-7.1627,-7.1695,-7.1757,-7.1803,-7.173,-7.2028,-7.2056,-7.2082,-7.2174,-7.2211,-7.1775,-7.1774,-7.1774,-7.1773,0,-7.0452,-7.061,-7.0737,-7.0898,-7.0998,-7.1169,-7.1217,-7.1315,-7.1315,-7.136,-7.1565,-7.1657,-7.1807,-7.1865,-7.1867,-7.2108,-7.2074,-7.2023,-7.192,-7.2126,-7.2213,-7.2249,-7.1786,-7.1784,-7.1781,-7.1779,0,0,-7.0764,-7.0934,-7.0981,-7.1051,-7.1188,-7.1309,-7.1475,-7.1625,-7.1706,-7.1818,-7.1956,-7.2159,-7.2112,-7.2196,-7.2206,-7.2316,-7.2527,-7.2251,-7.2254,-7.2297,-7.2794,-7.283,-7.2871,-7.2509,-7.2516,-7.2522,-7.2783,0,-7.1027,-7.1326,-7.1352,-7.1618,-7.1762,-7.1736,-7.1881,-7.1978,-7.2023,-7.2148,-7.2196,-7.2339,-7.2267,-7.2317,-7.2425,-7.2479,-7.2627,-7.2461,-7.2634,-7.264,-7.2604,-7.2918,-7.2958,-7.3201,-7.2818,-7.2824,-7.2828,0,-7.1375,-7.1499,-7.1781,-7.1894,-7.1955,-7.2085,-7.2221,-7.2343,-7.245,-7.2474,-7.2567,-7.2561,-7.2728,-7.262,-7.2847,-7.2733,-7.2805,-7.2842,-7.2852,-7.2868,-7.2746,-7.294,-7.3279,-7.3315,-7.2882,-7.2878,-7.2874,0,-7.1571,-7.1808,-7.2006,-7.2068,-7.2206,-7.2297,-7.2358,-7.2458,-7.2545,-7.2662,-7.2718,-7.2853,-7.2926,-7.3028,-7.3057,-7.2976,-7.3282,-7.3177,-7.3304,-7.3303,-7.337,-7.3365,-7.3723,-7.3418,-7.3418,-7.3417,-7.3416,0,-7.1862,-7.2034,-7.2096,-7.2218,-7.2408,-7.2434,-7.2621,-7.2676,-7.2765,-7.2894,-7.2879,-7.2999,-7.3031,-7.3155,-7.3178,-7.3361,-7.3395,-7.3416,-7.342,-7.3417,-7.3414,-7.3464,-7.3447,-7.3427,-7.3425,-7.3423,-7.3421,0,-7.2114,-7.2163,-7.2376,-7.2489,-7.252,-7.2656,-7.275,-7.2864,-7.2906,-7.3068,-7.3108,-7.3172,-7.3318,-7.3357,-7.3531,-7.3546,-7.376,-7.3749,-7.3725,-7.3724,-7.3848,-7.3835,-7.425,-7.4304,-7.3965,-7.3968,-7.3971,0,-7.2296,-7.2428,-7.2554,-7.264,-7.2706,-7.2845,-7.2933,-7.2961,-7.3053,-7.3183,-7.3281,-7.3425,-7.3542,-7.3774,-7.3834,-7.3965,-7.3956,-7.4092,-7.3976,-7.3967,-7.3955,-7.3946,-7.3958,-7.4114,-7.4117,-7.412,-7.4123,0,-7.2613,-7.2629,-7.2759,-7.2896,-7.3002,-7.3111,-7.3214,-7.3285,-7.3327,-7.343,-7.358,-7.367,-7.3847,-7.3989,-7.4121,-7.4179,-7.4157,-7.4159,-7.4195,-7.4193,-7.4172,-7.4182,-7.3784,-7.4149,-7.4147,-7.4145,-7.4143,-7.4142,-7.2834,-7.2949,-7.3055,-7.3198,-7.3279,-7.3376,-7.3488,-7.3544,-7.367,-7.3819,-7.3826,-7.3988,-7.4086,-7.4262,-7.4327,-7.445,-7.4409,-7.4462,-7.4475,-7.4487,-7.4496,-7.4154,-7.4474,-7.4474,-7.4473,-7.4473,-7.4472,0,-7.3148,-7.3214,-7.3346,-7.3492,-7.3603,-7.3575,-7.3688,-7.3781,-7.3925,-7.402,-7.4135,-7.4305,-7.4441,-7.451,-7.4644,-7.4729,-7.4722,-7.4763,-7.4756,-7.4769,-7.4527,-7.4482,-7.4766,-7.4766,-7.4766,-7.4766,-7.4766,-7.4766,-7.3325,-7.3517,-7.3545,-7.3775,-7.3839,-7.3999,-7.4065,-7.4152,-7.4228,-7.4419,-7.4533,-7.4578,-7.4662,-7.4801,-7.4923,-7.4939,-7.4988,-7.5034,-7.5045,-7.4817,-7.4787,-7.4758,-7.4716,-7.5045,-7.5045,-7.5276,-7.5278,-7.528]},{"header":{"parameterUnit":"m.s-1","parameterCategory":1,"la1":30.2991,"la2":30.254,"lo1":-89.0895,"lo2":-89.0444,"dy":0.0017,"dx":0.0017,"nx":28,"ny":28,"refTime":"2024-03-20T03:00:00:Z","depth":0,"parameterNumber":3,"parameterNumberName":"V-component_of_WINDS"},"data":[0,0,0,0,0,0,0,0,0,0,0,0,0,0,0,0,0,0,0,0,0,0,0,0,0,0,0,0,0,0,0,0,0,0,0,0,0,0,0,0,0,0,0,0,0,0,0,0,0,0,0,0,0,0,0,0,0,0,2.8764,2.8765,0,2.8897,2.8899,2.89,2.8934,2.8934,2.8933,2.8932,2.9062,2.9066,2.907,0,0,0,0,0,0,0,0,0,0,0,0,0,2.8529,2.8533,2.8764,2.8765,2.8767,2.8897,2.8899,2.8901,2.8934,2.8933,2.8932,2.8932,2.906,2.9065,2.907,0,0,0,0,0,0,0,0,0,0,0,0,0,2.8643,2.8535,2.8763,2.88,2.8804,2.8897,2.8899,2.8901,2.8935,2.8933,2.8932,2.8931,2.9059,2.9065,2.9071,2.9135,0,0,2.909,2.9093,0,0,0,0,0,0,0,0,2.8637,2.8652,2.8793,2.8797,2.8803,2.8898,2.8864,2.8979,2.8935,2.8885,2.8932,2.893,2.9008,2.9018,2.9046,2.9141,2.9146,2.9091,2.9095,2.9097,2.9099,0,0,0,0,0,0,0,2.8629,2.8646,2.8816,2.8795,2.8801,2.8806,2.8821,2.8886,2.8951,2.8889,2.8892,2.8908,2.901,2.904,2.9049,2.9148,2.9091,2.9096,2.91,2.9103,2.9299,2.93,0,0,0,0,0,0,2.8616,2.864,2.8812,2.882,2.8715,2.8812,2.8828,2.8869,2.8951,2.8962,2.8909,2.8909,2.9029,2.9042,2.9054,2.9132,2.9097,2.9103,2.9107,2.9297,2.9299,2.93,0,0,0,0,0,0,2.8611,2.8631,2.8807,2.8731,2.8754,2.8817,2.8862,2.8872,2.8901,2.8966,2.8977,2.8927,2.9029,2.9045,2.9114,2.9137,2.9106,2.9112,2.9296,2.9298,2.93,2.929,0,0,0,0,0,0,2.8604,2.8629,2.8656,2.8731,2.8758,2.8868,2.8863,2.8875,2.8913,2.8915,2.8986,2.8997,2.9029,2.9104,2.912,2.9145,2.9117,2.9294,2.9297,2.9299,2.9288,2.9291,2.9294,0,0,0,0,0,2.8595,2.8647,2.8657,2.8678,2.8793,2.8869,2.8884,2.8922,2.8915,2.8941,2.8982,2.8994,2.9132,2.9111,2.9129,2.9156,2.9292,2.9296,2.9299,2.9287,2.929,2.9294,0,0,0,0,0,0,2.8571,2.8657,2.867,2.8748,2.8801,2.8875,2.8909,2.8925,2.898,2.8978,2.9022,2.9037,2.9103,2.9137,2.9112,2.922,2.9212,2.9219,2.9196,2.92,2.9203,2.9193,2.9122,0,0,0,0,0,2.8575,2.8631,2.8703,2.8765,2.8791,2.8845,2.888,2.8905,2.896,2.8982,2.9028,2.908,2.9134,2.9169,2.9223,2.9293,2.9307,2.932,2.9323,2.9325,2.933,2.9366,2.9372,2.9311,2.9311,2.9311,0,0,2.8583,2.8637,2.867,2.8761,2.8805,2.886,2.8864,2.8922,2.8963,2.899,2.9059,2.9094,2.9154,2.9223,2.9256,2.9253,2.935,2.9329,2.933,2.9334,2.937,2.9376,2.9381,2.9313,2.9313,2.9312,0,0,2.8625,2.8673,2.8729,2.8773,2.8841,2.8876,2.8889,2.896,2.8985,2.9055,2.9076,2.9123,2.9217,2.9258,2.9291,2.9347,2.9359,2.9363,2.9377,2.9412,2.9417,2.9421,2.9439,2.9445,2.9368,2.9368,2.9368,0,2.8626,2.8713,2.8755,2.8813,2.8851,2.888,2.8935,2.8975,2.9055,2.9079,2.9075,2.9192,2.9235,2.9313,2.9326,2.9353,2.9367,2.9355,2.9413,2.9418,2.9423,2.944,2.9447,2.9368,2.9368,2.9368,2.9368,0,2.8709,2.8768,2.8805,2.8884,2.8926,2.8981,2.9029,2.9066,2.9087,2.9121,2.919,2.9242,2.9306,2.9326,2.9346,2.9406,2.9402,2.9405,2.9397,2.9428,2.9445,2.9452,2.9368,2.9368,2.9368,2.9368,0,0,2.8741,2.8842,2.8854,2.8889,2.8965,2.901,2.9065,2.9129,2.9159,2.9213,2.9258,2.9336,2.9339,2.9376,2.9401,2.9432,2.947,2.9431,2.9433,2.9435,2.9535,2.9532,2.9539,2.9479,2.948,2.9481,2.953,0,2.8791,2.8895,2.8933,2.9016,2.907,2.9097,2.9145,2.9194,2.9228,2.9275,2.9311,2.9365,2.9366,2.9388,2.942,2.9458,2.949,2.9455,2.9518,2.952,2.9502,2.9548,2.9545,2.9589,2.9537,2.9538,2.9539,0,2.8865,2.8921,2.901,2.9077,2.9101,2.9144,2.9204,2.9251,2.9306,2.9327,2.9369,2.9391,2.9446,2.9435,2.951,2.9486,2.9513,2.9535,2.9538,2.9544,2.9531,2.9554,2.9604,2.961,2.955,2.9549,2.9548,0,2.8877,2.8974,2.904,2.9069,2.9149,2.9178,2.9212,2.9267,2.9302,2.9354,2.9377,2.9434,2.9464,2.9506,2.9542,2.9531,2.9613,2.9605,2.963,2.9629,2.9645,2.9644,2.9698,2.9665,2.9665,2.9665,2.9665,0,2.8929,2.8981,2.9046,2.9086,2.9145,2.9187,2.9243,2.9278,2.9326,2.9371,2.9397,2.9438,2.9484,2.9529,2.9557,2.9613,2.9627,2.9644,2.9651,2.9641,2.9639,2.9659,2.9657,2.9667,2.9666,2.9666,2.9666,0,2.8952,2.8998,2.907,2.914,2.9159,2.9199,2.9257,2.9295,2.9329,2.9385,2.9401,2.9453,2.9508,2.9548,2.9619,2.9637,2.9697,2.9704,2.9679,2.9682,2.9704,2.9701,2.9773,2.9783,2.9744,2.9744,2.9744,0,2.8982,2.9023,2.9098,2.9131,2.9165,2.9218,2.9255,2.9297,2.9333,2.9398,2.9427,2.9485,2.9533,2.9618,2.9661,2.9714,2.9722,2.9743,2.973,2.9718,2.972,2.9717,2.972,2.9745,2.9745,2.9745,2.9745,0,2.9029,2.9049,2.9103,2.9163,2.9206,2.9255,2.9304,2.9329,2.9379,2.9418,2.9476,2.9513,2.9585,2.964,2.9697,2.9729,2.9744,2.9749,2.9758,2.9748,2.9731,2.9739,2.9683,2.9747,2.9747,2.9747,2.9747,2.9747,2.9055,2.9093,2.9151,2.9208,2.925,2.9295,2.9333,2.9372,2.9422,2.9486,2.9507,2.9565,2.9616,2.9695,2.9727,2.9772,2.9771,2.9783,2.9786,2.9788,2.9787,2.9725,2.9782,2.9782,2.9782,2.9782,2.9782,0,2.9102,2.9141,2.9194,2.9262,2.9306,2.932,2.9374,2.9409,2.9462,2.9509,2.9556,2.962,2.9674,2.972,2.9774,2.9801,2.9809,2.9813,2.9811,2.9818,2.9785,2.9772,2.9806,2.9806,2.9806,2.9806,2.9806,2.9806,2.9132,2.9196,2.9222,2.9305,2.9342,2.9402,2.9432,2.9472,2.951,2.9582,2.9627,2.9658,2.9703,2.9761,2.9809,2.9821,2.9839,2.9841,2.9855,2.9823,2.982,2.9817,2.9805,2.9845,2.9845,2.9883,2.9884,2.9884]}]]